Find Raduga

NORAD ID: 21821 Int'l Des: 1991-087 Owner: UNKSR Country: SU operational
HEOCIRCULARGSO

Live Position

Loading 3D Globe...

About Raduga

Description loading...

Upcoming Passes

Passes for default location (London). Set your location on the main map for personalized predictions.

Altitude History

Loading altitude history...

Two-Line Element Set

1 21821U 91087A 26103.80983602 .00000129 00000-0 00000-0 0 9999
2 21821 13.4125 341.5231 0003395 188.1797 1.7380 1.00318450125674
Epoch: Apr 13, 2026 • Age: 27 hours

Current Status

Altitude 35766.8 km
Velocity 3.08 km/s
Sub-Earth Point -11.81°S, 37.47°E
Launch Date Dec 19, 1991
Age 34.3 years
Type other

Technical Details

Classification Payload
Mass 1965.00 kg
Dry Mass 1800.00 kg
Total Mass 1965.00 kg
Length 5.50 m
Diameter 2.50 m
Span 9.50 m
Shape Step Cyl + 2 Pan
Manufacturer NPOPM
Bus Type Raduga
Phase Status In Orbit
Owner/State UNKSR/SU

Most Searched